Location: Catstown
(52.4386°N, 7.2633°W)
Time: 09:45:10
(UTC+00:00)

CZ-2C R/B - Visible Passes

Search period start: 19 January 2021 00:00
Search period end: 29 January 2021 00:00
Orbit: 639 x 705 km, 98.4° (Epoch: 18 January)

Date Brightness Start Highest point End Pass type
(mag) Time Alt. Az. Time Alt. Az. Time Alt. Az.
19 Jan 5.4 07:01:17 10° SE 07:05:11 31° ENE 07:09:05 10° N visible
20 Jan 6.6 06:01:03 10° ENE 06:02:08 11° NE 06:03:13 10° NE visible
20 Jan 4.3 07:34:01 10° SSE 07:38:22 58° ENE 07:42:44 10° N visible
21 Jan 6.2 06:31:59 10° E 06:35:02 19° ENE 06:38:06 10° NNE visible
22 Jan 5.3 07:04:09 10° SE 07:08:06 32° ENE 07:12:03 10° N visible
23 Jan 6.5 06:03:40 10° ENE 06:05:02 11° NE 06:06:23 10° NNE visible
23 Jan 4.2 07:36:55 10° SSE 07:41:17 61° ENE 07:45:40 10° N visible
24 Jan 6.1 06:34:47 10° ESE 06:37:57 19° ENE 06:41:06 10° NNE visible
25 Jan 5.3 07:07:01 10° SE 07:10:59 34° ENE 07:15:00 10° N visible
26 Jan 6.5 06:06:19 10° ENE 06:07:55 12° NE 06:09:31 10° NNE visible
26 Jan 4.1 07:39:49 10° SSE 07:44:12 64° ENE 07:48:37 10° N visible
27 Jan 6.1 06:37:36 10° ESE 06:40:50 20° ENE 06:44:05 10° N visible
28 Jan 5.2 07:09:52 10° SE 07:13:54 35° ENE 07:17:57 10° N visible
